DGDWR EDDH-EDQM

Flight info

Callsign DGDWR
Flight time N/A
Altitude 11000
Route AMLUH3B AMLUH M852 POVEL Z94 GALMA M736 TABAT TABAT1B
Aircraft PA34/L-SDFGRY/S

Departure

Time 2026-05-01 15:14
Airport Hamburg Helmut Schmidt Airport (EDDH)

Arrival

Time N/A
Airport Hof-Plauen Airport (EDQM)
Time Latitude Longitude Altitude Speed Heading
2026-05-01 14:32 53.62535 9.99378 56 ft 0 kts 258°
2026-05-01 15:09 53.62542 9.99344 56 ft 6 kts 351°
2026-05-01 15:09 53.62580 9.99336 56 ft 6 kts
2026-05-01 15:09 53.62599 9.99415 56 ft 11 kts 83°
2026-05-01 15:09 53.62616 9.99561 56 ft 6 kts 76°
2026-05-01 15:10 53.62667 9.99605 56 ft 9 kts 346°
2026-05-01 15:10 53.62845 9.99458 56 ft 18 kts 332°
2026-05-01 15:10 53.62944 9.99370 56 ft 14 kts 334°
2026-05-01 15:11 53.63004 9.99315 56 ft 8 kts 330°
2026-05-01 15:11 53.63077 9.99231 56 ft 8 kts 302°
2026-05-01 15:11 53.63088 9.99176 56 ft 3 kts 283°
2026-05-01 15:12 53.63094 9.99078 56 ft 9 kts 270°
2026-05-01 15:12 53.63098 9.98939 56 ft 0 kts 230°
2026-05-01 15:14 53.62958 9.98665 56 ft 26 kts 230°
2026-05-01 15:14 53.62667 9.98075 96 ft 90 kts 225°
2026-05-01 15:14 53.61790 9.96289 775 ft 104 kts 227°
2026-05-01 15:15 53.60757 9.94243 1347 ft 113 kts 226°
2026-05-01 15:15 53.59713 9.92050 1811 ft 119 kts 226°
2026-05-01 15:16 53.58684 9.89925 2372 ft 116 kts 226°
2026-05-01 15:16 53.57657 9.87811 2920 ft 117 kts 226°
2026-05-01 15:17 53.56239 9.86835 3463 ft 111 kts 185°
2026-05-01 15:18 53.53941 9.86273 4288 ft 110 kts 185°
2026-05-01 15:18 53.53181 9.86089 4555 ft 109 kts 185°
2026-05-01 15:19 53.50942 9.85549 5333 ft 108 kts 185°
2026-05-01 15:19 53.49456 9.85268 5849 ft 106 kts 171°
2026-05-01 15:19 53.48730 9.85521 6110 ft 105 kts 165°
2026-05-01 15:20 53.47430 9.86560 6623 ft 105 kts 142°
2026-05-01 15:20 53.46880 9.87387 6881 ft 106 kts 136°
2026-05-01 15:20 53.46388 9.88328 7096 ft 110 kts 134°
2026-05-01 15:21 53.45883 9.89310 7322 ft 111 kts 134°
2026-05-01 15:21 53.45372 9.90302 7552 ft 111 kts 134°
2026-05-01 15:21 53.44864 9.91291 7761 ft 113 kts 134°
2026-05-01 15:21 53.44336 9.92291 7979 ft 113 kts 136°
2026-05-01 15:22 53.43222 9.94181 8416 ft 114 kts 137°
2026-05-01 15:22 53.42667 9.95123 8634 ft 114 kts 136°
2026-05-01 15:22 53.42104 9.96082 8805 ft 117 kts 136°
2026-05-01 15:23 53.41530 9.97064 9003 ft 118 kts 136°
2026-05-01 15:23 53.40947 9.98062 9162 ft 118 kts 136°
2026-05-01 15:23 53.40374 9.99044 9248 ft 116 kts 137°
2026-05-01 15:23 53.39812 10.00006 9308 ft 117 kts 137°
2026-05-01 15:24 53.39226 10.01008 9313 ft 121 kts 137°
2026-05-01 15:24 53.38636 10.02017 9309 ft 118 kts 137°
2026-05-01 15:24 53.38063 10.02996 9313 ft 115 kts 137°
2026-05-01 15:24 53.37500 10.03958 9312 ft 114 kts 137°
2026-05-01 15:25 53.36941 10.04915 9309 ft 116 kts 137°
2026-05-01 15:25 53.36366 10.05897 9312 ft 123 kts 137°
2026-05-01 15:25 53.35733 10.06976 9306 ft 131 kts 136°
2026-05-01 15:25 53.35082 10.08088 9309 ft 133 kts 136°
2026-05-01 15:26 53.34435 10.09192 9313 ft 133 kts 136°
2026-05-01 15:26 53.33785 10.10298 9312 ft 132 kts 136°
2026-05-01 15:26 53.33139 10.11402 9310 ft 132 kts 136°
2026-05-01 15:26 53.32482 10.12521 9308 ft 132 kts 136°
2026-05-01 15:27 53.31844 10.13609 9305 ft 131 kts 136°
2026-05-01 15:27 53.31197 10.14692 9308 ft 130 kts 141°
2026-05-01 15:27 53.30391 10.15383 9311 ft 130 kts 156°
2026-05-01 15:28 53.28694 10.16460 9311 ft 130 kts 158°
2026-05-01 15:28 53.27841 10.16999 9311 ft 130 kts 158°
2026-05-01 15:28 53.27002 10.17535 9310 ft 130 kts 158°
2026-05-01 15:29 53.25303 10.18627 9311 ft 130 kts 158°
2026-05-01 15:29 53.24457 10.19173 9311 ft 130 kts 158°
2026-05-01 15:29 53.22758 10.20270 9307 ft 130 kts 158°
2026-05-01 15:30 53.21061 10.21367 9312 ft 130 kts 158°
2026-05-01 15:31 53.17627 10.23585 9312 ft 134 kts 158°
2026-05-01 15:31 53.15866 10.24721 9318 ft 135 kts 158°
2026-05-01 15:32 53.14097 10.25862 9315 ft 136 kts 157°
2026-05-01 15:32 53.12322 10.27007 9309 ft 136 kts 157°
2026-05-01 15:33 53.09644 10.28730 9310 ft 137 kts 157°
2026-05-01 15:34 53.06959 10.30454 9319 ft 137 kts 157°